Location: ????????
(55.0097°N, 38.5678°E)
Time: 01:31:06
(UTC+00:00)

RESURS DK-1 - Visible Passes

Search period start: 21 July 2024 00:00
Search period end: 31 July 2024 00:00
Orbit: 539 x 548 km, 69.9° (Epoch: 20 July)

Date Brightness Start Highest point End Pass type
(mag) Time Alt. Az. Time Alt. Az. Time Alt. Az.
21 Jul 5.0 00:06:06 10° SE 00:07:49 12° ESE 00:09:32 10° ENE visible
21 Jul 4.8 23:58:51 10° SE 00:01:04 14° ESE 00:03:17 10° ENE visible
22 Jul 4.7 23:51:43 10° SE 23:54:18 17° ESE 23:56:54 10° ENE visible
23 Jul 4.5 23:44:40 10° SSE 23:47:33 19° ESE 23:50:27 10° ENE visible
24 Jul 4.3 23:37:40 10° SSE 23:40:47 22° ESE 23:43:56 10° ENE visible
25 Jul 4.0 23:30:42 10° SSE 23:34:01 25° ESE 23:37:22 10° NE visible
26 Jul 3.8 23:24:09 12° SSE 23:27:15 28° ESE 23:30:46 10° NE visible
27 Jul 3.5 23:17:41 15° S 23:20:28 32° ESE 23:24:08 10° NE visible
28 Jul 3.3 23:11:11 18° S 23:13:42 37° ESE 23:17:29 10° NE visible
29 Jul 3.0 23:04:38 21° S 23:06:55 42° ESE 23:10:48 10° NE visible
30 Jul 3.5 00:40:59 10° WSW 00:44:44 34° NW 00:48:30 10° NNE visible
30 Jul 2.8 22:58:03 24° S 23:00:08 49° ESE 23:04:06 10° NE visible
